ON8AR Weather Reports


time (UTC)temp
C
wind
direction
speed
KPH
gust
KPH
rain 1hr
cm
rain 24hr
cm
rain mn
cm
humidity
%
barometer
mb
20190424162729 18 225 16.1 24.1 0.00 0.00 0.00 42 1009.4
20190424162228 18 157 9.7 20.9 0.00 0.00 0.00 43 1009.4
20190424161730 18 202 14.5 20.9 0.00 0.00 0.00 38 1008.3
20190424161229 20 202 8.0 16.1 0.00 0.00 0.00 33 1008.3
20190424160728 20 225 8.0 16.1 0.00 0.00 0.00 29 1008.3
20190424160230 20 202 4.8 16.1 0.00 0.00 0.00 29 1008.3
20190424155729 21 157 9.7 14.5 0.00 0.00 0.00 27 1008.3
20190424155228 21 202 6.4 16.1 0.00 0.00 0.00 27 1008.3
20190424154729 21 135 9.7 24.1 0.00 0.00 0.00 26 1008.3
20190424154228 21 157 9.7 24.1 0.00 0.00 0.00 26 1008.3
20190424153729 22 225 9.7 24.1 0.00 0.00 0.00 26 1008.3
20190424153230 22 202 8.0 19.3 0.00 0.00 0.00 25 1008.3
20190424152728 23 202 3.2 20.9 0.00 0.00 0.00 26 1008.3
20190424152231 22 135 8.0 24.1 0.00 0.00 0.00 25 1008.3
20190424151728 22 202 9.7 24.1 0.00 0.00 0.00 25 1008.3
20190424151231 22 157 14.5 24.1 0.00 0.00 0.00 25 1008.3
20190424150728 23 157 14.5 24.1 0.00 0.00 0.00 25 1008.3
20190424150231 23 157 6.4 24.1 0.00 0.00 0.00 25 1008.3
20190424145729 23 90 14.5 24.1 0.00 0.00 0.00 25 1008.3
20190424145228 22 157 11.3 24.1 0.00 0.00 0.00 25 1008.3
20190424144729 23 180 12.9 24.1 0.00 0.00 0.00 25 1008.3
20190424144228 23 202 9.7 24.1 0.00 0.00 0.00 25 1008.3
20190424143728 23 180 12.9 24.1 0.00 0.00 0.00 25 1008.3
20190424143229 23 157 11.3 24.1 0.00 0.00 0.00 24 1008.3
20190424142728 23 270 9.7 24.1 0.00 0.00 0.00 25 1008.3
20190424142233 23 202 12.9 22.5 0.00 0.00 0.00 25 1008.3
20190424141728 23 112 14.5 22.5 0.00 0.00 0.00 25 1008.3
20190424141228 23 157 11.3 22.5 0.00 0.00 0.00 25 1008.3
20190424140729 23 135 11.3 20.9 0.00 0.00 0.00 25 1008.3
20190424140229 23 157 14.5 20.9 0.00 0.00 0.00 25 1008.3
20190424135731 23 225 11.3 27.4 0.00 0.00 0.00 25 1008.3
20190424135228 23 225 9.7 27.4 0.00 0.00 0.00 24 1008.3
20190424134729 23 135 14.5 27.4 0.00 0.00 0.00 24 1008.3
20190424134230 23 135 16.1 20.9 0.00 0.00 0.00 24 1008.3
20190424133728 24 135 8.0 20.9 0.00 0.00 0.00 24 1008.3
20190424133228 24 157 9.7 24.1 0.00 0.00 0.00 24 1008.3
20190424132730 25 180 6.4 24.1 0.00 0.00 0.00 24 1008.3
20190424132229 25 180 11.3 24.1 0.00 0.00 0.00 24 1008.3
20190424131729 24 157 14.5 22.5 0.00 0.00 0.00 24 1008.3
20190424131228 25 157 9.7 24.1 0.00 0.00 0.00 24 1008.3
20190424130729 24 225 9.7 38.6 0.00 0.00 0.00 25 1008.3
20190424130229 24 157 11.3 38.6 0.00 0.00 0.00 24 1008.3
20190424125728 25 202 11.3 38.6 0.00 0.00 0.00 24 1008.3
20190424125229 25 202 12.9 22.5 0.00 0.00 0.00 24 1008.3
20190424124730 24 292 11.3 22.5 0.00 0.00 0.00 25 1008.3
20190424124230 23 157 11.3 27.4 0.00 0.00 0.00 25 1008.3
20190424123728 24 112 11.3 27.4 0.00 0.00 0.00 25 1008.3
20190424123228 23 90 9.7 27.4 0.00 0.00 0.00 25 1008.3
20190424122728 23 157 11.3 20.9 0.00 0.00 0.00 25 1008.3
20190424122229 24 202 9.7 20.9 0.00 0.00 0.00 25 1008.3
20190424121728 23 180 11.3 20.9 0.00 0.00 0.00 26 1008.3
20190424121228 23 157 6.4 20.9 0.00 0.00 0.00 26 1008.3
20190424120728 23 202 11.3 19.3 0.00 0.00 0.00 26 1008.3
20190424120230 23 202 14.5 20.9 0.00 0.00 0.00 25 1008.3
20190424115728 24 225 9.7 25.7 0.00 0.00 0.00 26 1008.3
20190424115230 24 202 12.9 25.7 0.00 0.00 0.00 25 1008.3
20190424114728 24 135 11.3 25.7 0.00 0.00 0.00 25 1008.3
20190424114229 24 157 16.1 19.3 0.00 0.00 0.00 25 1008.3
20190424113729 25 180 9.7 20.9 0.00 0.00 0.00 25 1008.3
20190424113230 24 247 8.0 20.9 0.00 0.00 0.00 26 1008.3
20190424112728 24 157 12.9 20.9 0.00 0.00 0.00 26 1008.3
20190424112229 24 135 6.4 19.3 0.00 0.00 0.00 27 1008.3
20190424111728 24 180 4.8 19.3 0.00 0.00 0.00 27 1008.3
20190424111228 24 135 11.3 19.3 0.00 0.00 0.00 28 1008.3
20190424110728 23 247 9.7 16.1 0.00 0.00 0.00 28 1008.3
20190424110229 23 225 6.4 22.5 0.00 0.00 0.00 29 1008.3
20190424105728 23 202 9.7 22.5 0.00 0.00 0.00 30 1008.3
20190424105228 23 180 6.4 22.5 0.00 0.00 0.00 30 1008.3
20190424104730 23 157 6.4 20.9 0.00 0.00 0.00 30 1008.3
20190424104230 23 225 8.0 20.9 0.00 0.00 0.00 31 1008.3
20190424103728 23 225 8.0 19.3 0.00 0.00 0.00 31 1008.3
20190424103228 23 202 6.4 19.3 0.00 0.00 0.00 31 1009.4
20190424102728 23 157 8.0 16.1 0.00 0.00 0.00 31 1009.4
20190424102231 22 0 8.0 16.1 0.00 0.00 0.00 32 1009.4
20190424101731 22 157 8.0 17.7 0.00 0.00 0.00 32 1009.4
20190424101229 22 157 6.4 20.9 0.00 0.00 0.00 32 1009.4
20190424100751 22 202 8.0 20.9 0.00 0.00 0.00 32 1009.4
20190424100251 22 157 4.8 20.9 0.00 0.00 0.00 32 1008.3
20190424095746 21 112 8.0 19.3 0.00 0.00 0.00 33 1008.3
20190424095245 21 157 9.7 19.3 0.00 0.00 0.00 33 1008.3
20190424094748 21 202 11.3 19.3 0.00 0.00 0.00 32 1009.4
20190424094248 21 135 11.3 20.9 0.00 0.00 0.00 32 1009.4
20190424093739 21 202 9.7 20.9 0.00 0.00 0.00 33 1009.4
20190424093238 21 157 6.4 20.9 0.00 0.00 0.00 33 1008.3
20190424092741 21 157 8.0 20.9 0.00 0.00 0.00 33 1008.3
20190424092241 21 180 9.7 22.5 0.00 0.00 0.00 33 1008.3
20190424091747 21 157 11.3 22.5 0.00 0.00 0.00 33 1008.3
20190424091238 21 202 9.7 22.5 0.00 0.00 0.00 33 1008.3
20190424090745 21 157 9.7 20.9 0.00 0.00 0.00 34 1008.3
20190424090253 21 157 9.7 20.9 0.00 0.00 0.00 34 1008.3
20190424085729 21 135 8.0 19.3 0.00 0.00 0.00 35 1008.3
20190424085227 21 157 11.3 17.7 0.00 0.00 0.00 34 1008.3
20190424084729 20 225 4.8 24.1 0.00 0.00 0.00 35 1008.3
20190424084233 20 157 3.2 24.1 0.00 0.00 0.00 36 1008.3
20190424083731 20 90 9.7 24.1 0.00 0.00 0.00 36 1008.3
20190424083229 20 157 16.1 20.9 0.00 0.00 0.00 36 1008.3
20190424082728 20 247 8.0 19.3 0.00 0.00 0.00 37 1008.3
20190424082228 20 157 8.0 24.1 0.00 0.00 0.00 38 1008.3
20190424081731 19 112 6.4 24.1 0.00 0.00 0.00 39 1008.3
20190424081231 19 157 11.3 24.1 0.00 0.00 0.00 39 1008.3
20190424080735 19 90 12.9 24.1 0.00 0.00 0.00 40 1008.3
20190424080230 18 225 11.3 24.1 0.00 0.00 0.00 43 1008.3
20190424075730 18 157 3.2 17.7 0.00 0.00 0.00 46 1008.3
20190424075229 17 157 4.8 17.7 0.00 0.00 0.00 46 1008.3
20190424074729 17 135 8.0 14.5 0.00 0.00 0.00 46 1008.3
20190424074229 17 157 8.0 14.5 0.00 0.00 0.00 47 1008.3
20190424073728 17 112 4.8 9.7 0.00 0.00 0.00 50 1008.3
20190424073227 16 157 3.2 9.7 0.00 0.00 0.00 51 1008.3
20190424072737 16 157 3.2 9.7 0.00 0.00 0.00 52 1008.3
20190424072233 16 157 3.2 9.7 0.00 0.00 0.00 51 1008.3
20190424071734 16 135 4.8 9.7 0.00 0.00 0.00 52 1008.3
20190424071227 16 157 1.6 8.0 0.00 0.00 0.00 53 1008.3
20190424070728 16 157 4.8 8.0 0.00 0.00 0.00 53 1008.3
20190424070228 15 157 4.8 8.0 0.00 0.00 0.00 54 1008.3
20190424065729 15 135 4.8 6.4 0.00 0.00 0.00 55 1008.3
20190424065233 15 157 4.8 9.7 0.00 0.00 0.00 56 1008.3
20190424064752 15 135 4.8 9.7 0.00 0.00 0.00 56 1008.3
20190424064230 15 157 3.2 9.7 0.00 0.00 0.00 57 1008.3
20190424063729 15 202 3.2 9.7 0.00 0.00 0.00 57 1008.3
20190424063235 15 135 6.4 9.7 0.00 0.00 0.00 58 1008.3
20190424062728 15 157 3.2 9.7 0.00 0.00 0.00 59 1008.3
20190424062242 14 157 3.2 9.7 0.00 0.00 0.00 61 1008.3
20190424061737 14 157 4.8 8.0 0.00 0.00 0.00 63 1008.3
20190424061230 13 157 4.8 4.8 0.00 0.00 0.00 67 1008.3
20190424060740 13 157 3.2 4.8 0.00 0.00 0.00 70 1008.3
20190424060229 13 157 3.2 4.8 0.00 0.00 0.00 71 1008.3
20190424055731 12 135 3.2 3.2 0.00 0.00 0.00 71 1008.3
20190424055228 12 157 0.0 3.2 0.00 0.00 0.00 71 1008.3
20190424054735 12 157 1.6 1.6 0.00 0.00 0.00 72 1008.3
20190424054231 12 157 0.0 3.2 0.00 0.00 0.00 71 1008.3
20190424053727 12 157 0.0 3.2 0.00 0.00 0.00 72 1008.3
20190424053228 11 157 0.0 3.2 0.00 0.00 0.00 72 1008.3
20190424052729 11 157 0.0 3.2 0.00 0.00 0.00 72 1008.3
20190424052231 11 157 0.0 1.6 0.00 0.00 0.00 71 1008.3
20190424051732 11 157 1.6 3.2 0.00 0.00 0.00 71 1008.3
20190424051228 11 157 0.0 4.8 0.00 0.00 0.00 72 1008.3
20190424050737 11 157 0.0 4.8 0.00 0.00 0.00 72 1008.3
20190424050236 11 157 1.6 4.8 0.00 0.00 0.00 72 1008.3
20190424045731 11 157 1.6 4.8 0.00 0.00 0.00 71 1008.3
20190424045228 11 157 1.6 4.8 0.00 0.00 0.00 72 1008.3
20190424044732 11 157 1.6 3.2 0.00 0.00 0.00 71 1008.3
20190424044230 11 157 3.2 3.2 0.00 0.00 0.00 70 1008.3
20190424043729 11 157 1.6 3.2 0.00 0.00 0.00 70 1008.3
20190424043228 11 157 1.6 3.2 0.00 0.00 0.00 69 1007.1
20190424042728 11 157 1.6 3.2 0.00 0.00 0.00 68 1007.1
20190424042232 11 157 1.6 3.2 0.00 0.00 0.00 67 1007.1
20190424041730 11 157 0.0 3.2 0.00 0.00 0.00 66 1007.1
20190424041228 11 157 3.2 3.2 0.00 0.00 0.00 66 1007.1
20190424040728 11 157 3.2 3.2 0.00 0.00 0.00 65 1007.1
20190424040239 11 157 1.6 3.2 0.00 0.00 0.00 65 1007.1
20190424035729 11 157 1.6 3.2 0.00 0.00 0.00 65 1007.1
20190424035242 11 157 0.0 3.2 0.00 0.00 0.00 65 1007.1
20190424034730 11 157 0.0 6.4 0.00 0.00 0.00 65 1007.1
20190424034232 11 157 0.0 6.4 0.00 0.00 0.00 66 1007.1
20190424033733 11 157 1.6 6.4 0.00 0.00 0.00 67 1007.1
20190424033232 11 157 3.2 4.8 0.00 0.00 0.00 68 1007.1
20190424032729 11 135 0.0 3.2 0.00 0.00 0.00 66 1007.1
20190424032240 11 157 1.6 1.6 0.00 0.00 0.00 66 1007.1
20190424031734 10 135 0.0 0.0 0.00 0.00 0.00 66 1007.1
20190424031231 11 135 0.0 3.2 0.00 0.00 0.00 66 1007.1
20190424030729 11 135 0.0 4.8 0.00 0.00 0.00 66 1007.1
20190424030232 11 135 0.0 4.8 0.00 0.00 0.00 67 1008.3
20190424025729 11 45 0.0 4.8 0.00 0.00 0.00 68 1008.3
20190424025231 11 157 3.2 4.8 0.00 0.00 0.00 69 1008.3
20190424024731 11 135 1.6 3.2 0.00 0.00 0.00 69 1007.1
20190424024229 10 157 1.6 3.2 0.00 0.00 0.00 68 1007.1
20190424023729 10 157 0.0 3.2 0.00 0.00 0.00 68 1007.1
20190424023233 10 202 0.0 1.6 0.00 0.00 0.00 68 1007.1
20190424022728 10 202 0.0 1.6 0.00 0.00 0.00 68 1007.1
20190424022228 10 202 0.0 0.0 0.00 0.00 0.00 68 1007.1
20190424021729 10 202 0.0 0.0 0.00 0.00 0.00 68 1007.1
20190424021228 10 202 0.0 0.0 0.00 0.00 0.00 68 1007.1
20190424020728 10 202 0.0 0.0 0.00 0.00 0.00 68 1007.1
20190424020229 10 202 0.0 1.6 0.00 0.00 0.00 68 1007.1
20190424015729 10 202 0.0 1.6 0.00 0.00 0.00 68 1007.1
20190424015231 10 202 0.0 1.6 0.00 0.00 0.00 68 1007.1
20190424014738 10 202 0.0 0.0 0.00 0.00 0.00 66 1007.1
20190424014231 10 202 0.0 0.0 0.00 0.00 0.00 66 1007.1
20190424013737 10 202 0.0 0.0 0.00 0.00 0.00 65 1007.1
20190424013236 10 202 0.0 0.0 0.00 0.00 0.00 65 1007.1
20190424012733 10 202 0.0 0.0 0.00 0.00 0.00 65 1007.1
20190424012232 10 202 0.0 0.0 0.00 0.00 0.00 65 1007.1
20190424011729 10 202 0.0 4.8 0.00 0.00 0.00 64 1007.1
20190424011238 10 202 0.0 4.8 0.00 0.00 0.00 63 1007.1
20190424010728 10 202 0.0 4.8 0.00 0.00 0.00 64 1007.1
20190424010229 10 157 0.0 0.0 0.00 0.00 0.00 62 1007.1
20190424005730 10 157 0.0 0.0 0.00 0.00 0.00 62 1007.1
20190424005228 11 157 0.0 1.6 0.00 0.00 0.00 62 1007.1
20190424004728 11 157 0.0 1.6 0.00 0.00 0.00 62 1007.1
20190424004230 11 157 0.0 1.6 0.00 0.00 0.00 62 1007.1
20190424003733 11 157 0.0 1.6 0.00 0.00 0.00 62 1007.1
20190424003228 11 157 0.0 1.6 0.00 0.00 0.00 60 1007.1
20190424002730 11 157 0.0 0.0 0.00 0.00 0.00 60 1007.1
20190424002228 11 157 0.0 0.0 0.00 0.00 0.00 59 1007.1
20190424001729 11 157 0.0 0.0 0.00 0.00 0.00 58 1007.1
20190424001234 11 157 0.0 0.0 0.00 0.00 0.00 57 1007.1
20190424000740 11 157 0.0 0.0 0.00 0.00 0.00 57 1007.1
20190424000229 12 157 0.0 0.0 0.00 0.00 0.00 57 1007.1
20190423235729 12 157 0.0 0.0 0.00 0.00 0.00 57 1007.1
20190423235228 12 157 0.0 0.0 0.00 0.00 0.00 57 1007.1
20190423234732 12 157 0.0 3.2 0.00 0.00 0.00 55 1007.1
20190423234237 12 157 0.0 3.2 0.00 0.00 0.00 55 1007.1
20190423233728 12 157 0.0 3.2 0.00 0.00 0.00 55 1007.1
20190423233236 12 157 1.6 3.2 0.00 0.00 0.00 55 1007.1
20190423232731 13 157 0.0 3.2 0.00 0.00 0.00 54 1007.1
20190423232234 13 157 1.6 3.2 0.00 0.00 0.00 54 1007.1
20190423231730 13 157 0.0 3.2 0.00 0.00 0.00 53 1007.1
20190423231229 13 157 0.0 3.2 0.00 0.00 0.00 53 1007.1
20190423230729 13 157 1.6 3.2 0.00 0.00 0.00 52 1007.1
20190423230230 13 157 0.0 3.2 0.00 0.00 0.00 53 1007.1
20190423225731 13 157 1.6 3.2 0.00 0.00 0.00 52 1007.1
20190423225228 13 157 1.6 3.2 0.00 0.00 0.00 53 1007.1
20190423224729 13 157 1.6 4.8 0.00 0.00 0.00 53 1007.1
20190423224229 13 157 1.6 4.8 0.00 0.00 0.00 53 1007.1
20190423223727 13 135 3.2 4.8 0.00 0.00 0.00 53 1007.1
20190423223240 13 135 3.2 3.2 0.00 0.00 0.00 53 1007.1
20190423222733 13 135 1.6 3.2 0.00 0.00 0.00 52 1007.1
20190423222229 13 135 0.0 3.2 0.00 0.00 0.00 52 1007.1
20190423221731 13 135 1.6 3.2 0.00 0.00 0.00 52 1007.1
20190423221233 13 157 3.2 3.2 0.00 0.00 0.00 52 1007.1
20190423220728 13 157 0.0 3.2 0.00 0.00 0.00 51 1007.1
20190423220228 13 157 3.2 3.2 0.00 0.00 0.00 52 1007.1
20190423215728 13 157 1.6 3.2 0.00 0.00 0.00 51 1007.1
20190423215232 13 157 1.6 3.2 0.00 0.00 0.00 51 1007.1
20190423214728 14 157 0.0 3.2 0.00 0.00 0.00 50 1007.1
20190423214232 14 157 0.0 3.2 0.00 0.00 0.00 49 1007.1
20190423213729 14 157 0.0 3.2 0.00 0.00 0.00 49 1007.1
20190423213252 14 157 0.0 3.2 0.00 0.00 0.00 48 1007.1
20190423212728 14 157 0.0 3.2 0.00 0.00 0.00 48 1007.1
20190423212231 14 157 0.0 3.2 0.00 0.00 0.00 47 1007.1
20190423211729 14 157 1.6 3.2 0.00 0.00 0.00 47 1007.1
20190423211228 14 157 0.0 3.2 0.00 0.00 0.00 47 1007.1
20190423210728 14 157 1.6 3.2 0.00 0.00 0.00 47 1007.1
20190423210232 14 157 0.0 3.2 0.00 0.00 0.00 46 1007.1
20190423205729 14 157 0.0 1.6 0.00 0.00 0.00 46 1007.1
20190423205232 14 157 0.0 1.6 0.00 0.00 0.00 46 1007.1
20190423204729 14 157 0.0 1.6 0.00 0.00 0.00 46 1007.1
20190423204229 14 157 0.0 1.6 0.00 0.00 0.00 46 1007.1
20190423203735 15 157 0.0 1.6 0.00 0.00 0.00 46 1007.1
20190423203230 15 157 0.0 1.6 0.00 0.00 0.00 45 1007.1
20190423202730 15 157 0.0 1.6 0.00 0.00 0.00 45 1007.1
20190423202235 15 157 0.0 1.6 0.00 0.00 0.00 45 1007.1
20190423201729 15 157 0.0 1.6 0.00 0.00 0.00 44 1007.1
20190423201229 15 157 0.0 0.0 0.00 0.00 0.00 44 1007.1
20190423200730 15 157 0.0 1.6 0.00 0.00 0.00 44 1007.1
20190423200230 15 157 0.0 1.6 0.00 0.00 0.00 43 1007.1
20190423195730 15 157 0.0 1.6 0.00 0.00 0.00 43 1007.1
20190423195228 15 157 0.0 1.6 0.00 0.00 0.00 42 1007.1
20190423194734 15 157 0.0 1.6 0.00 0.00 0.00 42 1007.1
20190423194229 15 157 0.0 1.6 0.00 0.00 0.00 42 1007.1
20190423193728 15 157 0.0 1.6 0.00 0.00 0.00 41 1007.1
20190423193228 15 157 0.0 0.0 0.00 0.00 0.00 41 1007.1
20190423192728 16 157 0.0 1.6 0.00 0.00 0.00 40 1007.1
20190423192230 16 157 0.0 1.6 0.00 0.00 0.00 40 1007.1
20190423191734 16 157 0.0 3.2 0.00 0.00 0.00 39 1007.1
20190423191232 16 157 0.0 3.2 0.00 0.00 0.00 39 1007.1
20190423190728 16 157 1.6 3.2 0.00 0.00 0.00 38 1007.1
20190423190229 16 157 1.6 3.2 0.00 0.00 0.00 38 1007.1
20190423185732 16 157 1.6 3.2 0.00 0.00 0.00 37 1007.1
20190423185228 17 157 1.6 3.2 0.00 0.00 0.00 37 1007.1
20190423184733 17 157 1.6 4.8 0.00 0.00 0.00 36 1007.1
20190423184236 17 157 1.6 4.8 0.00 0.00 0.00 35 1007.1
20190423183728 17 90 0.0 4.8 0.00 0.00 0.00 35 1007.1
20190423183228 17 202 0.0 3.2 0.00 0.00 0.00 35 1007.1
20190423182731 18 202 1.6 6.4 0.00 0.00 0.00 34 1007.1
20190423182229 18 292 1.6 6.4 0.00 0.00 0.00 34 1007.1
20190423181729 18 202 1.6 6.4 0.00 0.00 0.00 34 1007.1
20190423181228 18 202 3.2 4.8 0.00 0.00 0.00 33 1007.1
20190423180731 18 157 0.0 6.4 0.00 0.00 0.00 33 1007.1
20190423180230 19 180 3.2 6.4 0.00 0.00 0.00 33 1007.1
20190423175732 19 202 3.2 6.4 0.00 0.00 0.00 33 1007.1
20190423175228 19 157 3.2 8.0 0.00 0.00 0.00 32 1007.1
20190423174732 19 135 4.8 8.0 0.00 0.00 0.00 32 1007.1
20190423174231 20 247 3.2 8.0 0.00 0.00 0.00 32 1007.1
20190423173728 20 180 4.8 9.7 0.00 0.00 0.00 32 1007.1
20190423173228 20 180 3.2 11.3 0.00 0.00 0.00 32 1007.1
20190423172730 20 225 1.6 11.3 0.00 0.00 0.00 32 1007.1
20190423172229 20 270 4.8 11.3 0.00 0.00 0.00 32 1007.1
20190423171732 20 270 3.2 16.1 0.00 0.00 0.00 32 1007.1
20190423171228 20 157 3.2 16.1 0.00 0.00 0.00 31 1007.1
20190423170728 20 157 3.2 16.1 0.00 0.00 0.00 31 1007.1
20190423170229 20 157 6.4 16.1 0.00 0.00 0.00 31 1007.1
20190423165728 21 157 3.2 12.9 0.00 0.00 0.00 31 1007.1
20190423165230 21 180 6.4 12.9 0.00 0.00 0.00 31 1007.1
20190423164729 21 337 4.8 11.3 0.00 0.00 0.00 31 1007.1
20190423164231 21 135 3.2 12.9 0.00 0.00 0.00 31 1007.1
20190423163727 21 247 6.4 19.3 0.00 0.00 0.00 30 1007.1
20190423163229 21 157 3.2 19.3 0.00 0.00 0.00 30 1007.1